Time,TemperatureF,DewpointF,PressureIn,WindDirection,WindDirectionDegrees,WindSpeedMPH,WindSpeedGustMPH,Humidity,HourlyPrecipIn,Conditions,Clouds,dailyrainin,SoftwareType,DateUTC
2013-04-05 00:02:00,50.0,49.0,29.67,SW,232,0.0,-999.0,95,-99.99,,,-99.99,,2013-04-05 07:02:00,
2013-04-05 00:11:00,50.0,49.0,29.67,SW,232,0.0,-999.0,95,-99.99,,,-99.99,,2013-04-05 07:11:00,
2013-04-05 00:22:00,50.0,49.0,29.67,SW,232,0.0,-999.0,95,-99.99,,,-99.99,,2013-04-05 07:22:00,
2013-04-05 00:32:00,50.0,49.0,29.67,SW,232,0.0,-999.0,95,-99.99,,,-99.99,,2013-04-05 07:32:00,
2013-04-05 00:42:00,50.0,49.0,29.67,SW,232,0.0,-999.0,95,-99.99,,,-99.99,,2013-04-05 07:42:00,
2013-04-05 00:52:00,50.0,49.0,29.67,SW,234,0.0,-999.0,95,-99.99,,,-99.99,,2013-04-05 07:52:00,
2013-04-05 01:02:00,50.0,49.0,29.68,SW,234,0.0,-999.0,95,-99.99,,,-99.99,,2013-04-05 08:02:00,
2013-04-05 01:12:00,50.0,49.0,29.68,SW,234,0.0,-999.0,95,-99.99,,,-99.99,,2013-04-05 08:12:00,
2013-04-05 01:22:00,50.0,49.0,29.68,SW,234,0.0,-999.0,95,-99.99,,,-99.99,,2013-04-05 08:22:00,
2013-04-05 01:32:00,50.0,49.0,29.68,North,5,0.0,-999.0,95,-99.99,,,-99.99,,2013-04-05 08:32:00,
2013-04-05 01:42:00,50.0,49.0,29.68,North,5,0.0,-999.0,95,-99.99,,,-99.99,,2013-04-05 08:42:00,
2013-04-05 01:52:00,50.0,49.0,29.69,North,355,0.0,-999.0,95,-99.99,,,-99.99,,2013-04-05 08:52:00,
2013-04-05 02:02:00,50.0,49.0,29.69,North,360,0.0,-999.0,95,-99.99,,,-99.99,,2013-04-05 09:02:00,
2013-04-05 02:11:00,50.0,49.0,29.69,North,360,0.0,-999.0,95,-99.99,,,-99.99,,2013-04-05 09:11:00,
2013-04-05 02:22:00,49.0,48.0,29.68,North,360,0.0,-999.0,95,-99.99,,,-99.99,,2013-04-05 09:22:00,
2013-04-05 02:32:00,49.0,48.0,29.68,North,360,0.0,-999.0,96,-99.99,,,-99.99,,2013-04-05 09:32:00,
2013-04-05 02:42:00,49.0,48.0,29.68,North,360,0.0,-999.0,96,-99.99,,,-99.99,,2013-04-05 09:42:00,
2013-04-05 02:52:00,49.0,48.0,29.68,North,360,0.0,-999.0,96,-99.99,,,-99.99,,2013-04-05 09:52:00,
2013-04-05 03:02:00,49.0,48.0,29.68,North,360,0.0,-999.0,95,-99.99,,,-99.99,,2013-04-05 10:02:00,
2013-04-05 03:12:00,49.0,48.0,29.68,North,360,0.0,-999.0,95,-99.99,,,-99.99,,2013-04-05 10:12:00,
2013-04-05 03:23:00,49.0,48.0,29.67,North,360,0.0,-999.0,96,-99.99,,,-99.99,,2013-04-05 10:23:00,
2013-04-05 03:32:00,49.0,48.0,29.67,North,360,0.0,-999.0,96,-99.99,,,-99.99,,2013-04-05 10:32:00,
2013-04-05 03:42:00,49.0,48.0,29.67,North,360,0.0,-999.0,96,-99.99,,,-99.99,,2013-04-05 10:42:00,
2013-04-05 03:52:00,49.0,48.0,29.67,NNE,15,0.0,-999.0,96,-99.99,,,-99.99,,2013-04-05 10:52:00,
2013-04-05 04:02:00,49.0,48.0,29.67,NNE,14,0.0,-999.0,96,-99.99,,,-99.99,,2013-04-05 11:02:00,
2013-04-05 04:12:00,49.0,48.0,29.67,NNE,14,0.0,-999.0,96,-99.99,,,-99.99,,2013-04-05 11:12:00,
2013-04-05 04:21:00,48.0,47.0,29.67,North,9,0.0,-999.0,96,-99.99,,,-99.99,,2013-04-05 11:21:00,
2013-04-05 04:32:00,48.0,47.0,29.67,NE,41,0.0,-999.0,96,-99.99,,,-99.99,,2013-04-05 11:32:00,
2013-04-05 04:42:00,48.0,47.0,29.67,NE,41,0.0,-999.0,96,-99.99,,,-99.99,,2013-04-05 11:42:00,
2013-04-05 04:52:00,48.0,47.0,29.67,NNE,26,0.0,-999.0,95,-99.99,,,-99.99,,2013-04-05 11:52:00,
2013-04-05 05:02:00,47.0,46.0,29.68,North,355,0.0,-999.0,96,-99.99,,,-99.99,,2013-04-05 12:02:00,
2013-04-05 05:11:00,47.0,46.0,29.68,North,355,0.0,-999.0,96,-99.99,,,-99.99,,2013-04-05 12:11:00,
2013-04-05 05:22:00,47.0,46.0,29.68,NE,37,0.0,-999.0,96,-99.99,,,-99.99,,2013-04-05 12:22:00,
2013-04-05 05:32:00,47.0,46.0,29.68,NNE,27,0.0,-999.0,96,-99.99,,,-99.99,,2013-04-05 12:32:00,
2013-04-05 05:42:00,47.0,46.0,29.68,NNE,27,0.0,-999.0,96,-99.99,,,-99.99,,2013-04-05 12:42:00,
2013-04-05 05:52:00,47.0,46.0,29.68,NNE,33,0.0,-999.0,96,-99.99,,,-99.99,,2013-04-05 12:52:00,
2013-04-05 06:02:00,47.0,46.0,29.68,NNE,22,0.0,-999.0,96,-99.99,,,-99.99,,2013-04-05 13:02:00,
2013-04-05 06:11:00,47.0,46.0,29.68,NNE,22,0.0,-999.0,96,-99.99,,,-99.99,,2013-04-05 13:11:00,
2013-04-05 06:21:00,47.0,46.0,29.69,North,9,0.0,-999.0,96,-99.99,,,-99.99,,2013-04-05 13:21:00,
2013-04-05 06:32:00,47.0,46.0,29.70,NW,324,0.0,-999.0,96,-99.99,,,-99.99,,2013-04-05 13:32:00,
2013-04-05 06:42:00,47.0,46.0,29.70,NW,324,0.0,-999.0,96,-99.99,,,-99.99,,2013-04-05 13:42:00,
2013-04-05 06:52:00,47.0,46.0,29.70,NW,324,0.0,-999.0,96,-99.99,,,-99.99,,2013-04-05 13:52:00,
2013-04-05 07:02:00,47.0,46.0,29.70,NNE,24,0.0,-999.0,96,-99.99,,,-99.99,,2013-04-05 14:02:00,
2013-04-05 07:12:00,47.0,46.0,29.70,NNE,24,0.0,-999.0,96,-99.99,,,-99.99,,2013-04-05 14:12:00,
2013-04-05 07:22:00,47.0,46.0,29.70,ENE,72,0.0,-999.0,96,-99.99,,,-99.99,,2013-04-05 14:22:00,
2013-04-05 07:36:00,47.0,46.0,29.70,South,184,0.0,-999.0,96,-99.99,,,-99.99,,2013-04-05 14:36:00,
2013-04-05 07:52:00,47.0,46.0,29.70,SSW,201,0.0,-999.0,96,-99.99,,,-99.99,,2013-04-05 14:52:00,
2013-04-05 08:02:00,48.0,47.0,29.70,SSW,198,0.0,-999.0,95,-99.99,,,-99.99,,2013-04-05 15:02:00,
2013-04-05 08:11:00,48.0,47.0,29.70,SSW,198,0.0,-999.0,95,-99.99,,,-99.99,,2013-04-05 15:11:00,
2013-04-05 08:22:00,49.0,48.0,29.70,SSW,198,0.0,-999.0,95,-99.99,,,-99.99,,2013-04-05 15:22:00,
2013-04-05 08:32:00,49.0,47.0,29.70,SW,220,0.0,-999.0,94,-99.99,,,-99.99,,2013-04-05 15:32:00,
2013-04-05 08:42:00,49.0,47.0,29.70,SW,220,0.0,-999.0,94,-99.99,,,-99.99,,2013-04-05 15:42:00,
2013-04-05 08:52:00,50.0,48.0,29.71,SSW,194,0.0,-999.0,93,-99.99,,,-99.99,,2013-04-05 15:52:00,
2013-04-05 09:02:00,50.0,48.0,29.71,SSW,199,0.0,-999.0,93,-99.99,,,-99.99,,2013-04-05 16:02:00,
2013-04-05 09:12:00,50.0,48.0,29.71,SSW,199,0.0,-999.0,93,-99.99,,,-99.99,,2013-04-05 16:12:00,
2013-04-05 09:22:00,52.0,49.0,29.72,West,259,0.0,-999.0,91,-99.99,,,-99.99,,2013-04-05 16:22:00,
2013-04-05 09:32:00,53.0,49.0,29.72,WNW,293,0.0,-999.0,86,-99.99,,,-99.99,,2013-04-05 16:32:00,
2013-04-05 09:42:00,53.0,49.0,29.72,WNW,293,0.0,-999.0,86,-99.99,,,-99.99,,2013-04-05 16:42:00,
2013-04-05 09:52:00,53.0,49.0,29.72,WNW,293,0.0,-999.0,86,-99.99,,,-99.99,,2013-04-05 16:52:00,
2013-04-05 10:02:00,53.0,48.0,29.72,NW,307,0.0,-999.0,84,-99.99,,,-99.99,,2013-04-05 17:02:00,
2013-04-05 10:12:00,53.0,48.0,29.72,NW,307,0.0,-999.0,84,-99.99,,,-99.99,,2013-04-05 17:12:00,
2013-04-05 10:22:00,54.0,49.0,29.72,NNE,29,0.0,-999.0,82,-99.99,,,-99.99,,2013-04-05 17:22:00,
2013-04-05 10:32:00,55.0,49.0,29.72,East,86,0.0,-999.0,79,-99.99,,,-99.99,,2013-04-05 17:32:00,
2013-04-05 10:44:00,55.0,49.0,29.72,East,86,0.0,-999.0,79,-99.99,,,-99.99,,2013-04-05 17:44:00,
2013-04-05 10:51:00,55.0,48.0,29.72,NE,49,0.0,-999.0,77,-99.99,,,-99.99,,2013-04-05 17:51:00,
2013-04-05 11:02:00,55.0,48.0,29.72,ENE,75,0.0,-999.0,78,-99.99,,,-99.99,,2013-04-05 18:02:00,
2013-04-05 11:12:00,55.0,48.0,29.72,ENE,75,0.0,-999.0,78,-99.99,,,-99.99,,2013-04-05 18:12:00,
2013-04-05 11:22:00,56.0,49.0,29.72,ENE,65,0.0,-999.0,78,-99.99,,,-99.99,,2013-04-05 18:22:00,
2013-04-05 11:32:00,56.0,49.0,29.73,WNW,286,1.0,-999.0,78,-99.99,,,-99.99,,2013-04-05 18:32:00,
2013-04-05 11:42:00,56.0,49.0,29.73,WNW,286,1.0,-999.0,78,-99.99,,,-99.99,,2013-04-05 18:42:00,
2013-04-05 11:52:00,55.0,47.0,29.73,WNW,285,1.0,-999.0,75,-99.99,,,-99.99,,2013-04-05 18:52:00,
2013-04-05 12:02:00,56.0,49.0,29.73,NE,51,1.0,-999.0,76,-99.99,,,-99.99,,2013-04-05 19:02:00,
2013-04-05 12:12:00,56.0,49.0,29.73,NE,51,1.0,-999.0,76,-99.99,,,-99.99,,2013-04-05 19:12:00,
2013-04-05 12:22:00,56.0,49.0,29.73,NE,51,1.0,-999.0,76,-99.99,,,-99.99,,2013-04-05 19:22:00,
2013-04-05 12:32:00,56.0,49.0,29.73,NE,51,1.0,-999.0,76,-99.99,,,-99.99,,2013-04-05 19:32:00,
2013-04-05 12:41:00,56.0,49.0,29.73,NE,51,1.0,-999.0,76,-99.99,,,-99.99,,2013-04-05 19:41:00,
2013-04-05 13:22:00,59.0,52.0,29.74,North,5,4.0,-999.0,77,-99.99,,,-99.99,,2013-04-05 20:22:00,
2013-04-05 13:32:00,59.0,52.0,29.74,North,5,4.0,-999.0,77,-99.99,,,-99.99,,2013-04-05 20:32:00,
2013-04-05 13:42:00,59.0,52.0,29.74,North,5,4.0,-999.0,77,-99.99,,,-99.99,,2013-04-05 20:42:00,
2013-04-05 13:52:00,59.0,51.0,29.74,North,350,5.0,-999.0,74,-99.99,,,-99.99,,2013-04-05 20:52:00,
2013-04-05 14:02:00,59.0,50.0,29.72,NNE,19,5.0,-999.0,72,-99.99,,,-99.99,,2013-04-05 21:02:00,
2013-04-05 14:12:00,59.0,50.0,29.72,NNE,19,5.0,-999.0,72,-99.99,,,-99.99,,2013-04-05 21:12:00,
2013-04-05 14:22:00,58.0,50.0,29.71,NNE,30,3.0,-999.0,75,-99.99,,,-99.99,,2013-04-05 21:22:00,
2013-04-05 14:32:00,57.0,50.0,29.70,NNE,22,2.0,-999.0,76,-99.99,,,-99.99,,2013-04-05 21:32:00,
2013-04-05 14:42:00,57.0,50.0,29.70,NNE,22,2.0,-999.0,76,-99.99,,,-99.99,,2013-04-05 21:42:00,
2013-04-05 14:52:00,58.0,50.0,29.71,NE,40,2.0,-999.0,76,-99.99,,,-99.99,,2013-04-05 21:52:00,
2013-04-05 15:02:00,58.0,51.0,29.72,NNE,14,3.0,-999.0,77,-99.99,,,-99.99,,2013-04-05 22:02:00,
2013-04-05 15:12:00,58.0,51.0,29.72,NNE,14,3.0,-999.0,77,-99.99,,,-99.99,,2013-04-05 22:12:00,
2013-04-05 15:22:00,58.0,50.0,29.71,NNE,19,2.0,-999.0,76,-99.99,,,-99.99,,2013-04-05 22:22:00,
2013-04-05 15:32:00,59.0,51.0,29.71,NE,42,3.0,-999.0,74,-99.99,,,-99.99,,2013-04-05 22:32:00,
2013-04-05 15:42:00,59.0,51.0,29.71,NE,42,3.0,-999.0,74,-99.99,,,-99.99,,2013-04-05 22:42:00,
2013-04-05 15:52:00,59.0,51.0,29.71,NE,44,3.0,-999.0,75,-99.99,,,-99.99,,2013-04-05 22:52:00,
2013-04-05 16:02:00,59.0,51.0,29.70,NNE,28,4.0,-999.0,76,-99.99,,,-99.99,,2013-04-05 23:02:00,
2013-04-05 16:12:00,59.0,51.0,29.70,NNE,28,4.0,-999.0,76,-99.99,,,-99.99,,2013-04-05 23:12:00,
2013-04-05 16:22:00,59.0,51.0,29.71,NE,34,3.0,-999.0,75,-99.99,,,-99.99,,2013-04-05 23:22:00,
2013-04-05 16:32:00,59.0,50.0,29.70,NNE,28,2.0,-999.0,72,-99.99,,,-99.99,,2013-04-05 23:32:00,
2013-04-05 16:42:00,59.0,50.0,29.70,NNE,28,2.0,-999.0,72,-99.99,,,-99.99,,2013-04-05 23:42:00,
2013-04-05 16:52:00,59.0,50.0,29.70,NNE,31,3.0,-999.0,72,-99.99,,,-99.99,,2013-04-05 23:52:00,
2013-04-05 17:02:00,58.0,49.0,29.70,North,9,2.0,-999.0,73,-99.99,,,-99.99,,2013-04-06 00:02:00,
2013-04-05 17:12:00,58.0,49.0,29.70,North,9,2.0,-999.0,73,-99.99,,,-99.99,,2013-04-06 00:12:00,
2013-04-05 17:22:00,58.0,50.0,29.70,North,5,1.0,-999.0,74,-99.99,,,-99.99,,2013-04-06 00:22:00,
2013-04-05 17:32:00,57.0,48.0,29.69,NE,34,1.0,-999.0,72,-99.99,,,-99.99,,2013-04-06 00:32:00,
2013-04-05 17:42:00,57.0,48.0,29.69,NE,34,1.0,-999.0,72,-99.99,,,-99.99,,2013-04-06 00:42:00,
2013-04-05 17:52:00,57.0,48.0,29.70,NE,42,1.0,-999.0,72,-99.99,,,-99.99,,2013-04-06 00:52:00,
2013-04-05 18:02:00,57.0,49.0,29.70,NNW,333,1.0,-999.0,75,-99.99,,,-99.99,,2013-04-06 01:02:00,
2013-04-05 18:12:00,56.0,49.0,29.70,NNE,13,2.0,-999.0,76,-99.99,,,-99.99,,2013-04-06 01:12:00,
2013-04-05 18:22:00,56.0,49.0,29.70,NNE,13,2.0,-999.0,76,-99.99,,,-99.99,,2013-04-06 01:22:00,
2013-04-05 18:32:00,55.0,48.0,29.71,WNW,298,1.0,-999.0,77,-99.99,,,-99.99,,2013-04-06 01:32:00,
2013-04-05 18:42:00,55.0,48.0,29.71,WNW,298,1.0,-999.0,77,-99.99,,,-99.99,,2013-04-06 01:42:00,
2013-04-05 18:52:00,53.0,46.0,29.71,East,86,2.0,-999.0,77,-99.99,,,-99.99,,2013-04-06 01:52:00,
2013-04-05 19:02:00,51.0,45.0,29.71,WNW,296,1.0,-999.0,81,-99.99,,,-99.99,,2013-04-06 02:02:00,
2013-04-05 19:12:00,51.0,45.0,29.71,WNW,296,1.0,-999.0,81,-99.99,,,-99.99,,2013-04-06 02:12:00,
2013-04-05 19:22:00,50.0,46.0,29.70,NW,305,2.0,-999.0,85,-99.99,,,-99.99,,2013-04-06 02:22:00,
2013-04-05 19:32:00,49.0,45.0,29.70,West,265,1.0,-999.0,87,-99.99,,,-99.99,,2013-04-06 02:32:00,
2013-04-05 19:42:00,49.0,45.0,29.70,West,265,1.0,-999.0,87,-99.99,,,-99.99,,2013-04-06 02:42:00,
2013-04-05 19:52:00,48.0,45.0,29.70,WNW,294,0.0,-999.0,88,-99.99,,,-99.99,,2013-04-06 02:52:00,
2013-04-05 20:02:00,47.0,44.0,29.69,WNW,287,0.0,-999.0,89,-99.99,,,-99.99,,2013-04-06 03:02:00,
2013-04-05 20:11:00,47.0,44.0,29.69,WNW,287,0.0,-999.0,89,-99.99,,,-99.99,,2013-04-06 03:11:00,
2013-04-05 20:21:00,47.0,44.0,29.70,West,268,0.0,-999.0,90,-99.99,,,-99.99,,2013-04-06 03:21:00,
2013-04-05 20:33:00,47.0,44.0,29.70,West,268,0.0,-999.0,90,-99.99,,,-99.99,,2013-04-06 03:33:00,
2013-04-05 20:42:00,47.0,44.0,29.70,West,268,0.0,-999.0,90,-99.99,,,-99.99,,2013-04-06 03:42:00,
2013-04-05 20:53:00,47.0,44.0,29.72,WNW,291,1.0,-999.0,90,-99.99,,,-99.99,,2013-04-06 03:53:00,
2013-04-05 21:03:00,46.0,43.0,29.72,NW,306,0.0,-999.0,90,-99.99,,,-99.99,,2013-04-06 04:03:00,
2013-04-05 21:13:00,46.0,43.0,29.72,NW,306,0.0,-999.0,90,-99.99,,,-99.99,,2013-04-06 04:13:00,
2013-04-05 21:22:00,46.0,44.0,29.73,NW,310,2.0,-999.0,92,-99.99,,,-99.99,,2013-04-06 04:22:00,
2013-04-05 21:32:00,46.0,44.0,29.73,NW,311,0.0,-999.0,92,-99.99,,,-99.99,,2013-04-06 04:32:00,
2013-04-05 21:42:00,46.0,44.0,29.73,NW,311,0.0,-999.0,92,-99.99,,,-99.99,,2013-04-06 04:42:00,
2013-04-05 21:52:00,46.0,44.0,29.73,NW,311,0.0,-999.0,92,-99.99,,,-99.99,,2013-04-06 04:52:00,
2013-04-05 22:02:00,47.0,45.0,29.75,NW,306,0.0,-999.0,94,-99.99,,,-99.99,,2013-04-06 05:02:00,
2013-04-05 22:12:00,47.0,45.0,29.75,NW,306,0.0,-999.0,94,-99.99,,,-99.99,,2013-04-06 05:12:00,
2013-04-05 22:22:00,47.0,45.0,29.74,WNW,285,0.0,-999.0,94,-99.99,,,-99.99,,2013-04-06 05:22:00,
2013-04-05 22:32:00,47.0,45.0,29.74,NW,304,0.0,-999.0,94,-99.99,,,-99.99,,2013-04-06 05:32:00,
2013-04-05 22:42:00,47.0,45.0,29.74,NW,304,0.0,-999.0,94,-99.99,,,-99.99,,2013-04-06 05:42:00,
2013-04-05 22:51:00,47.0,45.0,29.75,NW,306,0.0,-999.0,94,-99.99,,,-99.99,,2013-04-06 05:51:00,
2013-04-05 23:02:00,47.0,45.0,29.75,West,273,0.0,-999.0,94,-99.99,,,-99.99,,2013-04-06 06:02:00,
2013-04-05 23:11:00,47.0,45.0,29.75,West,273,0.0,-999.0,94,-99.99,,,-99.99,,2013-04-06 06:11:00,
2013-04-05 23:22:00,47.0,45.0,29.75,NNE,13,0.0,-999.0,94,-99.99,,,-99.99,,2013-04-06 06:22:00,
2013-04-05 23:32:00,47.0,45.0,29.75,North,355,0.0,-999.0,94,-99.99,,,-99.99,,2013-04-06 06:32:00,
2013-04-05 23:42:00,47.0,45.0,29.75,North,355,0.0,-999.0,94,-99.99,,,-99.99,,2013-04-06 06:42:00,
2013-04-05 23:52:00,47.0,45.0,29.76,NNW,340,0.0,-999.0,94,-99.99,,,-99.99,,2013-04-06 06:52:00,